Retour au catalogue

BLACK KITE-1

ActifScienceSSO
NORAD 66741·PAYLOAD·🇹🇼 Taiwan

Lancé Nov 28, 2025 depuis Vandenberg Space Force Base

Loading…

Prochains Passages (prochaines 24 heures)

TLE

FraisSource: Space-Track

Époque: Sep 14, 2026, 10:35 UTC

1 66741U 25276CD  26257.44162374  .00005868  00000-0  26172-3 0  9997
2 66741  97.4169 329.8761 0006452  50.0058 310.1744 15.21759232 41296

Suivez BLACK KITE-1 en temps réel avec AllMySat

Download on the App Store